Miscellaneous Local Product
Issued by NWS North Platte, NE

Home | Current Version | Previous Version | Text Only | Print | Product List | Glossary On
Versions: 1 2 3 4 5 6 7 8 9 10 11 12 13 14 15 16 17 18 19 20 21 22 23 24 25 26 27 28 29 30 31 32 33 34 35 36 37 38 39 40 41 42 43 44 45 46 47 48 49 50
648
AXUS43 KLBF 301810
MISLBF


WESTERN AND NORTH CENTRAL NEBRASKA HOURLY WEATHER ROUNDUP
NATIONAL WEATHER SERVICE NORTH PLATTE NE
100 PM CDT SAT JUL 30 2016

NOTE: "FAIR" INDICATES FEW OR NO CLOUDS BELOW 12,000 FEET WITH NO
SIGNIFICANT WEATHER AND/OR OBSTRUCTIONS TO VISIBILITY.

NOTE: STATIONS NOT REPORTING VARIABLES SUCH AS SKY/WEATHER OR
PRESSURE ARE PROVIDED BY RAWS AND APRS NETWORKS AND ARE NOT UNDER
NATIONAL WEATHER SERVICE QUALITY CONTROL.

...OBSERVATIONS IN AND NEAR THE EASTERN PANHANDLE OF NEBRASKA...

CITY           SKY/WX    TMP DP  RH WIND       PRES   REMARKS
PINE RIDGE     SUNNY     86  62  44 W9G21     29.94F
CHADRON        SUNNY     87  60  40 SW9       29.93F
ALLIANCE       SUNNY     81  59  47 MISG      29.99F
SIDNEY         SUNNY     83  60  45 E10       30.04S
CRESCENT LAKE    N/A     83  65  55 SE5         N/A
$$

...OBSERVATIONS IN NORTHERN NEBRASKA AND FAR SOUTHERN SOUTH DAKOTA...

CITY           SKY/WX    TMP DP  RH WIND       PRES   REMARKS
WINNER         FAIR      83  63  50 S10       29.94F
VALENTINE      SUNNY     81  63  54 S12       29.96F
THEDFORD       SUNNY     79  66  64 SE13      29.99F
AINSWORTH      MOSUNNY   79  66  65 S10G17    29.98F
O`NEILL        MOSUNNY   79  65  61 SE8       29.99F
ORD            SUNNY     77  61  57 SE12      29.98F
BROKEN BOW     SUNNY     76  64  66 SE15      30.00F
VALENTINE NWR    N/A     77  65  65 S10G18      N/A
BUTTE            N/A     78  64  62 SE12G20     N/A
HALSEY           N/A     77  64  63 SE8G16      N/A
EWING            N/A     78  68  72 SE5         N/A
$$

...OBSERVATIONS IN SOUTHWEST NEBRASKA AND FAR NORTHEAST COLORADO...

CITY           SKY/WX    TMP DP  RH WIND       PRES   REMARKS
WRAY           FAIR      86  57  37 E6        29.99F
HOLYOKE        FAIR      84  63  48 E5        30.00F
IMPERIAL       SUNNY     81  60  48 VRB6      29.99F
OGALLALA       MOSUNNY   82  62  50 SE10      29.99F
NORTH PLATTE   CLOUDY    75  67  76 SE15      30.00S
MCCOOK         SUNNY     87  62  43 VRB7      29.97F
LEXINGTON      MOSUNNY   75  67  75 SE10G16   30.00F
STAPLETON        N/A     78  69  73 CALM        N/A
GOTHENBURG       N/A     71  62  74 SE12        N/A
CALLAWAY         N/A     75  68  78 SE12        N/A
$$

...OBSERVATIONS IN CENTRAL LINCOLN COUNTY AREA...

CITY           SKY/WX    TMP DP  RH WIND       PRES   REMARKS
N.P. AIRPORT   CLOUDY    75  67  76 SE15      30.00S
N.P. DOWNTOWN    N/A     75  68  78 E5G14       N/A
N.P. HILLCREST   N/A     74  68  81 SE14        N/A
$$

...SOME OBSERVATIONS FROM AROUND THE REGION...

CITY           SKY/WX    TMP DP  RH WIND       PRES   REMARKS
DENVER         MOSUNNY   80  59  48 NW9       30.06F
LARAMIE        SUNNY     79  44  28 NE7       30.18F
CHEYENNE       SUNNY     77  59  53 SE7       30.11F
SCOTTSBLUFF    SUNNY     80  65  59 E10       29.99F
RAPID CITY     SUNNY     85  59  41 SE14      29.91F
BISMARCK       MOSUNNY   78  65  63 S14       29.89S
PIERRE         SUNNY     86  62  44 SE18      29.88F
SIOUX FALLS    MOSUNNY   78  59  51 CALM      30.01F
OMAHA          CLOUDY    75  64  68 SE7       30.03S
GRAND ISLAND   SUNNY     74  64  71 SE10      30.01F
KANSAS CITY    PTSUNNY   82  59  45 VRB3      30.04F
WICHITA        CLOUDY    82  67  60 SE9       29.99F
OKLAHOMA CITY  CLOUDY    85  72  65 E6        29.98S HX  91
DALLAS         MOSUNNY   96  69  41 SW9       29.98F HX 102
AMARILLO       CLOUDY    86  62  44 SW15G23   30.09F
DODGE CITY     SUNNY     86  62  44 S12G20    30.00F
HAYS           SUNNY     84  64  51 S14G20    29.99S
GOODLAND       SUNNY     83  61  47 SE12G21   30.00F
$$




USA.gov is the U.S. government's official web portal to all federal, state and local government web resources and services.